NOZ2W BIKF-ENBR

Flight info

Callsign NOZ2W
Flight time N/A
Altitude 37000
Route OSKUM3C OSKUM DCT 63N010W DCT GUNPA/N0445F370 DCT MODNI
Aircraft B738/M-SDE2E3FGHIRWXY/LB1

Departure

Time N/A
Airport Keflavik International Airport (BIKF)

Arrival

Time 2026-04-28 19:25
Airport Bergen Airport, Flesland (ENBR)
Time Latitude Longitude Altitude Speed Heading
2026-04-28 18:27 62.42423 -6.57448 37314 ft 471 kts 114°
2026-04-28 18:28 62.41214 -6.50875 37324 ft 471 kts 114°
2026-04-28 18:28 62.38799 -6.37821 37328 ft 470 kts 115°
2026-04-28 18:29 62.36366 -6.24750 37332 ft 470 kts 114°
2026-04-28 18:29 62.33943 -6.11809 37693 ft 452 kts 114°
2026-04-28 18:29 62.32733 -6.05401 37133 ft 469 kts 115°
2026-04-28 18:30 62.31498 -5.98877 37240 ft 470 kts 115°
2026-04-28 18:30 62.29024 -5.85848 37340 ft 475 kts 115°
2026-04-28 18:31 62.26501 -5.72651 37355 ft 479 kts 114°
2026-04-28 18:31 62.23947 -5.59378 37362 ft 482 kts 115°
2026-04-28 18:32 62.21371 -5.46075 37363 ft 483 kts 115°
2026-04-28 18:32 62.18785 -5.32814 37362 ft 482 kts 115°
2026-04-28 18:33 62.16194 -5.19608 37376 ft 480 kts 115°
2026-04-28 18:33 62.13612 -5.06545 37377 ft 478 kts 115°
2026-04-28 18:34 62.11010 -4.93457 37369 ft 477 kts 114°
2026-04-28 18:34 62.08403 -4.80434 37383 ft 476 kts 115°
2026-04-28 18:35 62.05790 -4.67462 37387 ft 476 kts 115°
2026-04-28 18:35 62.03164 -4.54513 37398 ft 475 kts 115°
2026-04-28 18:36 62.00531 -4.41603 37396 ft 475 kts 115°
2026-04-28 18:36 61.97905 -4.28811 37410 ft 475 kts 114°
2026-04-28 18:37 61.95249 -4.15952 37410 ft 475 kts 114°
2026-04-28 18:37 61.92575 -4.03091 37410 ft 475 kts 115°
2026-04-28 18:38 61.89890 -3.90257 37419 ft 475 kts 115°
2026-04-28 18:38 61.87193 -3.77443 37409 ft 475 kts 115°
2026-04-28 18:39 61.84504 -3.64747 37422 ft 476 kts 116°
2026-04-28 18:39 61.81782 -3.51971 37422 ft 476 kts 115°
2026-04-28 18:40 61.79043 -3.39190 37429 ft 477 kts 115°
2026-04-28 18:40 61.76290 -3.26426 37428 ft 478 kts 115°
2026-04-28 18:41 61.73520 -3.13662 37422 ft 478 kts 116°
2026-04-28 18:41 61.70753 -3.00990 37426 ft 478 kts 116°
2026-04-28 18:42 61.67959 -2.88266 37424 ft 478 kts 116°
2026-04-28 18:42 61.65146 -2.75536 37436 ft 479 kts 115°
2026-04-28 18:43 61.62323 -2.62836 37446 ft 479 kts 115°
2026-04-28 18:43 61.59486 -2.50150 37448 ft 479 kts 116°
2026-04-28 18:44 61.56654 -2.37563 37437 ft 479 kts 116°
2026-04-28 18:44 61.52362 -2.18623 37460 ft 479 kts 116°
2026-04-28 18:45 61.49971 -2.08147 37450 ft 479 kts 115°
2026-04-28 18:45 61.47077 -1.95532 37457 ft 480 kts 115°
2026-04-28 18:46 61.43705 -1.80930 37456 ft 480 kts 116°
2026-04-28 18:46 61.41263 -1.70414 37456 ft 480 kts 116°
2026-04-28 18:47 61.38355 -1.57959 37458 ft 480 kts 116°
2026-04-28 18:47 61.35416 -1.45445 37461 ft 480 kts 116°
2026-04-28 18:48 61.32459 -1.32927 37461 ft 481 kts 115°
2026-04-28 18:48 61.29493 -1.20440 37469 ft 481 kts 115°
2026-04-28 18:49 61.27016 -1.10068 37469 ft 482 kts 116°
2026-04-28 18:49 61.23538 -0.95587 37469 ft 482 kts 116°
2026-04-28 18:50 61.20531 -0.83143 37470 ft 482 kts 116°
2026-04-28 18:50 61.17509 -0.70709 37476 ft 482 kts 116°
2026-04-28 18:51 61.14478 -0.58309 37474 ft 483 kts 116°
2026-04-28 18:51 61.11435 -0.45930 37480 ft 482 kts 116°
2026-04-28 18:52 61.08378 -0.33561 37479 ft 482 kts 116°
2026-04-28 18:52 61.05312 -0.21223 37481 ft 482 kts 116°
2026-04-28 18:53 61.02261 -0.09006 37475 ft 482 kts 116°
2026-04-28 18:53 60.99195 0.03270 37487 ft 481 kts 114°
2026-04-28 18:54 60.96381 0.15764 37479 ft 480 kts 112°
2026-04-28 18:54 60.93658 0.28319 37479 ft 480 kts 112°
2026-04-28 18:55 60.90897 0.40832 37482 ft 479 kts 113°
2026-04-28 18:55 60.88107 0.53256 37481 ft 479 kts 113°
2026-04-28 18:56 60.85659 0.65952 37493 ft 477 kts 105°
2026-04-28 18:56 60.83729 0.78869 37493 ft 475 kts 104°
2026-04-28 18:57 60.81811 0.91817 37485 ft 474 kts 104°
2026-04-28 18:57 60.79830 1.04704 37487 ft 473 kts 105°
2026-04-28 18:58 60.77825 1.17450 37494 ft 472 kts 105°
2026-04-28 18:58 60.75792 1.30221 37494 ft 472 kts 105°
2026-04-28 18:59 60.73747 1.42986 37504 ft 469 kts 104°
2026-04-28 18:59 60.72738 1.49238 37473 ft 454 kts 104°
2026-04-28 18:59 60.71759 1.55277 37298 ft 444 kts 104°
2026-04-28 19:00 60.70803 1.61168 36765 ft 443 kts 104°
2026-04-28 19:00 60.69815 1.67270 35785 ft 453 kts 104°
2026-04-28 19:00 60.68827 1.73365 34828 ft 462 kts 104°
2026-04-28 19:00 60.67805 1.79644 33818 ft 470 kts 104°
2026-04-28 19:01 60.66762 1.86013 32778 ft 477 kts 105°
2026-04-28 19:01 60.65701 1.92454 31881 ft 480 kts 105°
2026-04-28 19:01 60.64633 1.98899 31295 ft 476 kts 105°
2026-04-28 19:01 60.63575 2.05249 30844 ft 470 kts 105°
2026-04-28 19:02 60.62527 2.11520 30335 ft 464 kts 105°
2026-04-28 19:02 60.62014 2.14588 30030 ft 462 kts 105°
2026-04-28 19:02 60.60983 2.20735 29409 ft 457 kts 105°
2026-04-28 19:02 60.59967 2.26778 28781 ft 454 kts 105°
2026-04-28 19:03 60.58947 2.32836 28090 ft 452 kts 105°
2026-04-28 19:03 60.57931 2.38848 27537 ft 447 kts 105°
2026-04-28 19:03 60.56920 2.44803 26990 ft 443 kts 105°
2026-04-28 19:03 60.55918 2.50691 26468 ft 438 kts 105°
2026-04-28 19:04 60.54923 2.56523 25940 ft 434 kts 105°
2026-04-28 19:04 60.53938 2.62275 25437 ft 430 kts 105°
2026-04-28 19:04 60.52955 2.67996 24927 ft 427 kts 105°
2026-04-28 19:04 60.51978 2.73665 24431 ft 424 kts 104°
2026-04-28 19:05 60.51006 2.79298 23846 ft 422 kts 104°
2026-04-28 19:05 60.50032 2.84918 23272 ft 419 kts 104°
2026-04-28 19:05 60.49068 2.90461 22744 ft 415 kts 104°
2026-04-28 19:05 60.48106 2.95968 22226 ft 411 kts 104°
2026-04-28 19:06 60.47157 3.01397 21720 ft 407 kts 104°
2026-04-28 19:06 60.46530 3.04971 21395 ft 404 kts 104°
2026-04-28 19:06 60.45284 3.12056 20751 ft 400 kts 104°
2026-04-28 19:06 60.44353 3.17329 20551 ft 390 kts 104°
2026-04-28 19:07 60.43448 3.22428 20509 ft 380 kts 104°
2026-04-28 19:07 60.42566 3.27383 20497 ft 368 kts 104°
2026-04-28 19:07 60.41711 3.32177 20378 ft 357 kts 103°
2026-04-28 19:07 60.40874 3.36868 20104 ft 353 kts 103°
2026-04-28 19:08 60.40042 3.41547 19590 ft 355 kts 103°
2026-04-28 19:08 60.39202 3.46287 18593 ft 372 kts 103°
2026-04-28 19:08 60.38312 3.51301 17661 ft 383 kts 104°
2026-04-28 19:08 60.37402 3.56366 17093 ft 382 kts 104°
2026-04-28 19:09 60.36493 3.61382 16661 ft 378 kts 104°
2026-04-28 19:09 60.35590 3.66342 16193 ft 374 kts 104°
2026-04-28 19:09 60.34696 3.71250 15714 ft 371 kts 105°
2026-04-28 19:09 60.33805 3.76138 15231 ft 369 kts 105°
2026-04-28 19:10 60.32917 3.81005 14768 ft 367 kts 105°
2026-04-28 19:10 60.32036 3.85820 14319 ft 364 kts 105°
2026-04-28 19:10 60.31161 3.90591 13816 ft 362 kts 105°
2026-04-28 19:10 60.30289 3.95334 13316 ft 359 kts 106°
2026-04-28 19:11 60.29422 4.00042 12845 ft 357 kts 106°
2026-04-28 19:11 60.28560 4.04713 12393 ft 354 kts 106°
2026-04-28 19:11 60.27712 4.09294 11930 ft 352 kts 106°
2026-04-28 19:11 60.26859 4.13890 11491 ft 349 kts 107°
2026-04-28 19:12 60.26013 4.18426 11299 ft 339 kts 107°
2026-04-28 19:12 60.25198 4.22784 11205 ft 326 kts 107°
2026-04-28 19:12 60.24411 4.26985 11117 ft 315 kts 107°
2026-04-28 19:12 60.23651 4.31038 11040 ft 304 kts 107°
2026-04-28 19:13 60.22915 4.34957 10930 ft 294 kts 107°
2026-04-28 19:13 60.22199 4.38770 10747 ft 289 kts 107°
2026-04-28 19:13 60.21485 4.42570 10305 ft 294 kts 107°
2026-04-28 19:13 60.20757 4.46445 9833 ft 298 kts 107°
2026-04-28 19:14 60.20024 4.50330 9495 ft 297 kts 107°
2026-04-28 19:14 60.19292 4.54194 9196 ft 294 kts 107°
2026-04-28 19:14 60.18563 4.58033 8885 ft 292 kts 107°
2026-04-28 19:14 60.17839 4.61834 8572 ft 291 kts 107°
2026-04-28 19:15 60.17117 4.65623 8268 ft 289 kts 107°
2026-04-28 19:15 60.16401 4.69370 8024 ft 286 kts 107°
2026-04-28 19:15 60.15701 4.73023 7750 ft 283 kts 107°
2026-04-28 19:15 60.15223 4.75520 7538 ft 283 kts 107°
2026-04-28 19:16 60.14289 4.80387 7136 ft 281 kts 108°
2026-04-28 19:16 60.13589 4.84029 6852 ft 279 kts 108°
2026-04-28 19:16 60.12890 4.87656 6553 ft 278 kts 108°
2026-04-28 19:16 60.12198 4.91238 6351 ft 269 kts 108°
2026-04-28 19:17 60.11535 4.94657 6244 ft 256 kts 108°
2026-04-28 19:17 60.10906 4.97902 6129 ft 246 kts 108°
2026-04-28 19:17 60.10295 5.01065 5940 ft 242 kts 108°
2026-04-28 19:17 60.09687 5.04196 5615 ft 239 kts 108°
2026-04-28 19:18 60.09081 5.07309 5234 ft 240 kts 108°
2026-04-28 19:18 60.08477 5.10404 5014 ft 234 kts 108°
2026-04-28 19:18 60.07904 5.13324 4893 ft 216 kts 108°
2026-04-28 19:18 60.07693 5.16100 4642 ft 199 kts 75°
2026-04-28 19:19 60.08201 5.18607 4293 ft 193 kts 58°
2026-04-28 19:19 60.08850 5.20938 4017 ft 189 kts 57°
2026-04-28 19:19 60.09493 5.23203 3802 ft 182 kts 57°
2026-04-28 19:19 60.10105 5.25363 3607 ft 174 kts 54°
2026-04-28 19:20 60.10939 5.26929 3515 ft 163 kts 18°
2026-04-28 19:20 60.12053 5.27357 3441 ft 163 kts
2026-04-28 19:20 60.13166 5.27383 3252 ft 158 kts 356°
2026-04-28 19:20 60.14236 5.27198 3015 ft 149 kts 351°
2026-04-28 19:21 60.15241 5.26777 2774 ft 147 kts 346°
2026-04-28 19:21 60.16194 5.26222 2558 ft 139 kts 344°
2026-04-28 19:21 60.17119 5.25702 2317 ft 138 kts 348°
2026-04-28 19:21 60.18060 5.25339 2121 ft 137 kts 352°
2026-04-28 19:22 60.19011 5.25101 1995 ft 138 kts 353°
2026-04-28 19:22 60.19645 5.24938 1927 ft 139 kts 352°
2026-04-28 19:22 60.20928 5.24558 1790 ft 139 kts 351°
2026-04-28 19:22 60.21875 5.24206 1599 ft 138 kts 350°
2026-04-28 19:23 60.22821 5.23911 1381 ft 141 kts 353°
2026-04-28 19:23 60.23794 5.23643 1178 ft 140 kts 351°
2026-04-28 19:23 60.24743 5.23324 970 ft 138 kts 351°
2026-04-28 19:23 60.25688 5.23029 768 ft 138 kts 348°
2026-04-28 19:24 60.26641 5.22712 546 ft 141 kts 348°
2026-04-28 19:24 60.27611 5.22394 350 ft 142 kts 349°
2026-04-28 19:24 60.28582 5.22071 197 ft 138 kts 349°
2026-04-28 19:24 60.29382 5.21806 174 ft 89 kts 351°
2026-04-28 19:25 60.29704 5.21781 173 ft 24 kts 59°
2026-04-28 19:25 60.29687 5.22020 169 ft 16 kts 159°
2026-04-28 19:25 60.29579 5.22058 172 ft 16 kts 171°
2026-04-28 19:25 60.29468 5.22095 176 ft 18 kts 170°
2026-04-28 19:26 60.29309 5.22151 177 ft 28 kts 169°
2026-04-28 19:26 60.29101 5.22219 173 ft 26 kts 176°
2026-04-28 19:26 60.28933 5.22275 173 ft 23 kts 169°
2026-04-28 19:26 60.28809 5.22382 173 ft 14 kts 90°
2026-04-28 19:27 60.28848 5.22500 173 ft 8 kts 63°
2026-04-28 19:27 60.28859 5.22543 173 ft 0 kts 62°